Regional Weather Roundup
Issued by NWS

Home | Current Version | Previous Version | Graphics & Text | Print | Product List | Glossary On
Versions: 1 2 3 4 5 6 7 8 9 10 11 12 13 14 15 16 17 18 19 20 21 22 23 24 25 26 27
000
ASUS45 KPSR 250910
RWRAZ

ARIZONA HOURLY REGIONAL WEATHER ROUNDUP
NATIONAL WEATHER SERVICE PHOENIX AZ
200 AM MST WED APR 25 2018

NOTE: FAIR INDICATES FEW OR NO CLOUDS BELOW 12,000 FEET WITH NO
SIGNIFICANT WEATHER AND/OR OBSTRUCTIONS TO VISIBILITY.

AZZ001>003-036-251000-
NORTHWEST ARIZONA

CITY           SKY/WX    TMP DP  RH WIND       PRES   REMARKS
BULLHEAD CITY  CLEAR     79  18  10 CALM      29.86F
KINGMAN        CLEAR     57  20  23 SE5       30.04F
$$

AZZ004>008-015-016-018-251000-
NORTH CENTRAL ARIZONA

CITY           SKY/WX    TMP DP  RH WIND       PRES   REMARKS
GRAND CANYON   PTCLDY    34  15  46 CALM      30.24F
WILLIAMS       CLEAR     41  18  38 S8        30.22S
PRESCOTT       PTCLDY    53  25  33 S7        30.14F
FLAGSTAFF      CLEAR     38  17  42 E6        30.25S WCI  33
PAYSON         CLEAR     55  16  21 CALM      30.13F
PAGE           CLEAR     62  17  17 E3        30.17R
$$

AZZ009>014-017-251000-
NORTHEAST ARIZONA

CITY           SKY/WX    TMP DP  RH WIND       PRES   REMARKS
WINSLOW        NOT AVBL
SAINT JOHNS    PTCLDY    57  15  19 W12       30.13F
WINDOW ROCK    CLEAR     41  11  29 NE5       30.22F
SHOW LOW       PTCLDY    52  12  20 S9        30.21F
$$

AZZ540-542>544-546-548-251000-
GREATER PHOENIX AREA

CITY           SKY/WX    TMP DP  RH WIND       PRES   REMARKS
PHOENIX        MOCLDY    77  30  17 CALM      29.87F
BUCKEYE        MOCLDY    73  23  15 CALM      29.90S
LUKE AFB       PTCLDY    76  31  19 SW12      29.87F
DEER VALLEY    PTCLDY    68  25  19 CALM      29.90F
SCOTTSDALE     PTCLDY    75  32  20 N3        29.91F
MESA-GATEWAY   PTCLDY    67  28  23 SE6       29.92S
$$

AZZ539-553-251000-
SOUTHWEST MARICOPA COUNTY AND PINAL COUNTY

CITY           SKY/WX    TMP DP  RH WIND       PRES   REMARKS
CASA GRANDE    MOCLDY    71  26  18 CALM      29.94R
GILA BEND      FAIR      77  22  13 SE9       29.88F
$$

AZZ503-504-507>509-251000-
SOUTHEAST ARIZONA

CITY           SKY/WX    TMP DP  RH WIND       PRES   REMARKS
TUCSON         CLOUDY    70  17  13 SE7       30.02F
DAVIS-MONTHAN  MOCLDY    65  19  17 SE8       30.00F
NOGALES        CLOUDY    67  16  14 N6        30.08F
SIERRA VISTA   CLOUDY    70  11  10 W9        30.14S
DOUGLAS        MOCLDY    62  12  14 NW8       30.09F
SAFFORD        PTCLDY    64  15  15 N5        29.98F
$$

AZZ532-251000-
SOUTHWEST ARIZONA

CITY           SKY/WX    TMP DP  RH WIND       PRES   REMARKS
YUMA           PTCLDY    71  42  35 SW3       29.87F
$$

CAZ041-043-047-048-061-525>527-560>570-251000-
SOUTHERN CALIFORNIA

CITY           SKY/WX    TMP DP  RH WIND       PRES   REMARKS
DOWNTOWN L.A.  CLOUDY    55  53  93 CALM      30.05S FOG
L.A. AIRPORT   CLOUDY    55  51  86 SW6       30.06S
SAN DIEGO      CLOUDY    58  51  78 SW3       30.08
BURBANK        CLEAR     57  53  86 E5        30.03S
ONTARIO        PTCLDY    57  47  69 SW6       30.04S
RIVERSIDE      CLEAR     56  48  74 CALM      30.04S
PALM SPRINGS   CLEAR     75  33  21 CALM      29.90S
EL CENTRO NAS  CLEAR     71  31  22 W8        29.87S
IMPERIAL       CLEAR     69  36  29 NW3       29.85S
BLYTHE         CLEAR     76  36  23 S5        29.86F
NEEDLES        CLEAR     77  21  12 W9        29.88S
$$

NVZ020-UTZ003-251000-
SOUTHERN NEVADA-UTAH

CITY           SKY/WX    TMP DP  RH WIND       PRES   REMARKS
LAS VEGAS      PTCLDY    75  29  18 CALM      29.98S
SALT LAKE CITY CLEAR     50  27  40 S7        30.25F
$$

NMZ009-TXZ055-251000-
NEW MEXICO-WEST TEXAS

CITY           SKY/WX    TMP DP  RH WIND       PRES   REMARKS
ALBUQUERQUE    PTCLDY    48  34  58 E26G37    30.19S
EL PASO        MOCLDY    65  38  36 E8        30.04R
$$


........................KEY........................
SKY/WX - SKY CONDITION/WEATHER
TMP    - TEMPERATURE IN FAHRENHEIT
DP     - DEW POINT IN FAHRENHEIT
RH     - RELATIVE HUMIDITY IN PERCENT
WIND   - DIRECTION AND SPEED IN MILES PER HOUR (MPH)
VRB    - VARIABLE WIND DIRECTION
PRES   - MEAN SEA LEVEL PRESSURE IN INCHES OF MERCURY
         F - FALLING PRESSURE   R - RISING PRESSURE
         S - STEADY PRESSURE
VSB    - VISIBILITY IN MILES
HX     - HEAT INDEX IN FAHRENHEIT
WCI    - WIND CHILL INDEX IN FAHRENHEIT
TC     - TEMPERATURE IN CELSIUS WHICH IS ALSO KNOWN AS
         TEMPERATURE IN CENTIGRADE
AFB    - AIR FORCE BASE
         LUKE AFB IS LUKE AIR FORCE BASE
         DAVIS-MONTHAN IS DAVIS-MONTHAN AIR FORCE BASE
NAS    - NAVAL AIR STATION
         EL CENTRO NAS IS EL CENTRO NAVAL AIR STATION
N/A    - NOT AVAILABLE





USA.gov is the U.S. government's official web portal to all federal, state and local government web resources and services.